Location: Cherryland
(37.6794°N, 122.1033°W)
Time: 14:11:05
(UTC+00:00)

S3M - Pass Details

Date: 14 December 2025
Orbit: 947 x 1004 km, 83.0° (Epoch: 17 January)

Event Time Altitude Azimuth Distance (km) Brightness Sun altitude
Rises 14:30:53 0° 351° (N) 3,650 6.7 -8.8°
Reaches altitude 10° 14:33:24 10° 350° (N) 2,694 6.0 -8.4°
Maximum altitude 14:39:32 77° 266° (W) 977 3.9 -7.3°
Drops below altitude 10° 14:45:36 10° 181° (S) 2,659 6.6 -6.2°
Sets 14:48:04 0° 180° (S) 3,600 7.3 -5.7°
